This is the latest recevied weather packets stored in our database for station/object IW7DVM-13. If no packets are shown the sender has not sent any weather packets the latest 1 day(s).
| Time | Temp. | Humidity | Pressure | Rain* | Wind** | Luminosity | Snow |
|---|---|---|---|---|---|---|---|
| 1778025303 | 16.11° C | 73% | 1009.6 hPa | 0 mm | 1.34 m/s, 53° | - | - |
| 1778025003 | 16.11° C | 73% | 1009.6 hPa | 0 mm | 1.34 m/s, 58° | - | - |
| 1778024703 | 16.11° C | 73% | 1009.6 hPa | 0 mm | 0.89 m/s, 62° | - | - |
| 1778024403 | 16.11° C | 73% | 1009.7 hPa | 0 mm | 0.45 m/s, 55° | - | - |
| 1778024103 | 16.11° C | 73% | 1009.6 hPa | 0 mm | 0.45 m/s, 65° | - | - |
| 1778023803 | 16.11° C | 73% | 1009.6 hPa | 0 mm | 0.45 m/s, 74° | - | - |
| 1778023503 | 16.11° C | 73% | 1009.7 hPa | 0 mm | 0.89 m/s, 69° | - | - |
| 1778023203 | 16.11° C | 73% | 1009.7 hPa | 0 mm | 1.34 m/s, 56° | - | - |
| 1778022903 | 16.11° C | 73% | 1009.8 hPa | 0 mm | 1.79 m/s, 49° | - | - |
| 1778022603 | 16.11° C | 73% | 1009.8 hPa | 0 mm | 1.79 m/s, 53° | - | - |
| 1778022303 | 16.11° C | 73% | 1009.9 hPa | 0 mm | 1.34 m/s, 48° | - | - |
| 1778022003 | 16.11° C | 73% | 1010 hPa | 0 mm | 0.89 m/s, 50° | - | - |
| 1778021703 | 16.11° C | 73% | 1010 hPa | 0 mm | 0.89 m/s, 51° | - | - |
| 1778021403 | 16.11° C | 72% | 1010 hPa | 0 mm | 0.89 m/s, 61° | - | - |
| 1778021103 | 16.11° C | 72% | 1010.2 hPa | 0 mm | 1.34 m/s, 47° | - | - |
| 1778020803 | 16.11° C | 72% | 1010 hPa | 0 mm | 0.89 m/s, 64° | - | - |
| 1778020503 | 16.11° C | 72% | 1010.1 hPa | 0 mm | 0.89 m/s, 58° | - | - |
| 1778020203 | 16.67° C | 72% | 1010.2 hPa | 0 mm | 0.45 m/s, 68° | - | - |
| 1778019903 | 16.67° C | 72% | 1010.1 hPa | 0 mm | 0.89 m/s, 56° | - | - |
| 1778019603 | 16.67° C | 72% | 1010.2 hPa | 0 mm | 0.89 m/s, 62° | - | - |
| 1778019303 | 16.67° C | 72% | 1010.3 hPa | 0 mm | 0.45 m/s, 56° | - | - |
| 1778019003 | 16.67° C | 72% | 1010.3 hPa | 0 mm | 0.45 m/s, 50° | - | - |
| 1778018703 | 16.67° C | 72% | 1010.4 hPa | 0 mm | 1.34 m/s, 51° | - | - |
| 1778018403 | 16.67° C | 72% | 1010.3 hPa | 0 mm | 0.89 m/s, 52° | - | - |
| 1778018103 | 16.67° C | 72% | 1010.3 hPa | 0 mm | 0 m/s | - | - |
* Rain latest hour (hover to see other rain measurements)
** Current wind speed in m/s (hover to see current wind gust speed)